Weather History for Eufaula, AL

Change the Weather History Date:

Tuesday, December 4, 2012

  Actual Average (KLSF) Record (KLSF)
Temperature  
Mean Temperature 68 °F -  
Max Temperature 87 °F 61 °F 80 °F (2005)
Min Temperature 50 °F 36 °F 24 °F (2000)
Cooling Degree Days 4    
Growing Degree Days 18 (Base 50)    
Moisture  
Dew Point 51 °F    
Average Humidity 70    
Maximum Humidity 83    
Minimum Humidity 35    
Precipitation  
Precipitation 0.00 in - - ()
Sea Level Pressure  
Sea Level Pressure 30.26 in    
Wind  
Wind Speed 1 mph (South)    
Max Wind Speed 8 mph    
Max Gust Speed -    
Visibility 7 miles    
Events Rain    
Averages and records for this station are not official NWS values.
T = Trace of Precipitation, MM = Missing Value Source: NWS Daily Summary

Daily Weather History Graph

Daily Weather History Graph

Search for Another Location

Airport:

Trip Planner

Search our weather history database for the weather conditions in past years. The results will help you decide how hot, cold, wet, or windy it might be!

Date:

Astronomy

Dec. 04, 2012 Rise Set
Actual Time 6:25 AM CST 4:35 PM CST
Civil Twilight 5:59 AM CST 5:02 PM CST
Nautical Twilight 5:28 AM CST 5:32 PM CST
Astronomical Twilight 4:59 AM CST 6:02 PM CST
Moon 10:09 PM CST (12/4) 10:31 AM CST (12/4)
Length of Visible Light 11h 03m
Length of Day
10h 10m
Waning Gibbous, 69% of the Moon is Illuminated
Dec 4
Waning Gibbous
Dec 6
Last Quarter
Dec 13
New
Dec 19
First Quarter
Dec 28
Full

Hourly Weather History & Observations

Time (CST) Temp. Heat Index Dew Point Humidity Pressure Visibility Wind Dir Wind Speed Gust Speed Precip Events Conditions
12:58 AM 53.1 °F - 46.0 °F 77% 30.22 in 9.0 mi Calm Calm - 0.00 in Rain Light Rain
1:58 AM 52.0 °F - 45.0 °F 77% 30.23 in 5.0 mi Calm Calm - 0.00 in   Haze
2:58 AM 51.1 °F - 45.0 °F 80% 30.23 in 6.0 mi Calm Calm - N/A   Haze
3:58 AM 51.1 °F - 45.0 °F 80% 30.25 in 5.0 mi Calm Calm - 0.00 in   Haze
4:33 AM 51.8 °F - 44.6 °F 76% 30.25 in 4.0 mi Calm Calm - N/A   Haze
4:41 AM 50.0 °F - 44.6 °F 82% 30.25 in 4.0 mi Calm Calm - N/A   Haze
4:58 AM 50.0 °F - 44.1 °F 80% 30.25 in 5.0 mi Calm Calm - N/A   Haze
5:02 AM 50.0 °F - 44.6 °F 82% 30.26 in 5.0 mi Calm Calm - N/A   Haze
5:35 AM 51.8 °F - 44.6 °F 76% 30.27 in 5.0 mi Calm Calm - 0.00 in Rain Light Rain
5:52 AM 50.0 °F - 44.6 °F 82% 30.27 in 5.0 mi Calm Calm - 0.00 in   Haze
5:58 AM 50.0 °F - 45.0 °F 83% 30.27 in 7.0 mi Calm Calm - 0.00 in   Mostly Cloudy
6:07 AM 50.0 °F - 44.6 °F 82% 30.28 in 5.0 mi Calm Calm - N/A   Haze
6:58 AM 51.1 °F - 45.0 °F 80% 30.29 in 6.0 mi Calm Calm - N/A   Haze
7:04 AM 51.8 °F - 44.6 °F 76% 30.29 in 6.0 mi Calm Calm - N/A   Haze
7:16 AM 53.6 °F - 46.4 °F 77% 30.29 in 5.0 mi Calm Calm - N/A   Haze
7:25 AM 55.4 °F - 48.2 °F 77% 30.30 in 6.0 mi Calm Calm - N/A   Haze
7:54 AM 60.8 °F - 51.8 °F 72% 30.30 in 9.0 mi Calm Calm - N/A   Mostly Cloudy
7:58 AM 59.0 °F - 52.0 °F 78% 30.30 in 9.0 mi Calm Calm - N/A   Mostly Cloudy
8:03 AM 60.8 °F - 53.6 °F 77% 30.30 in 9.0 mi Calm Calm - N/A   Mostly Cloudy
8:18 AM 62.6 °F - 53.6 °F 72% 30.31 in 0.8 mi Calm Calm - N/A   Haze
8:58 AM 66.0 °F - 55.9 °F 70% 30.31 in 0.5 mi Calm Calm - N/A   Haze
9:08 AM 64.4 °F - 57.2 °F 77% 30.32 in 2.0 mi South 3.5 mph - N/A   Haze
9:14 AM 66.2 °F - 57.2 °F 73% 30.32 in 4.0 mi Calm Calm - N/A   Haze
9:28 AM 69.8 °F - 57.2 °F 64% 30.32 in 10.0 mi Calm Calm - N/A   Overcast
9:58 AM 75.0 °F - 59.0 °F 57% 30.31 in 10.0 mi South 4.6 mph - N/A   Mostly Cloudy
10:58 AM 78.1 °F - 59.0 °F 52% 30.29 in 10.0 mi South 5.8 mph - N/A   Clear
11:58 AM 82.9 °F 82.8 °F 59.0 °F 44% 30.25 in 10.0 mi SSE 8.1 mph - N/A   Clear
12:58 PM 87.1 °F 85.9 °F 57.0 °F 36% 30.22 in 10.0 mi South 6.9 mph - N/A   Partly Cloudy
1:58 PM 84.0 °F 82.6 °F 54.0 °F 35% 30.20 in 10.0 mi South 6.9 mph - N/A   Partly Cloudy
2:58 PM 80.1 °F - 52.0 °F 38% 30.20 in 10.0 mi South 5.8 mph - N/A   Scattered Clouds
3:58 PM 77.0 °F - 52.0 °F 42% 30.20 in 10.0 mi Calm Calm - N/A   Clear
4:58 PM 66.0 °F - 55.0 °F 68% 30.20 in 10.0 mi Calm Calm - N/A   Clear
5:58 PM 63.0 °F - 53.1 °F 70% 30.20 in 10.0 mi Calm Calm - N/A   Clear
6:58 PM 62.1 °F - 53.1 °F 72% 30.21 in 10.0 mi Calm Calm - N/A   Clear
7:58 PM 61.0 °F - 53.1 °F 75% 30.22 in 10.0 mi Calm Calm - N/A   Clear
8:58 PM 62.1 °F - 53.1 °F 72% 30.21 in 10.0 mi Calm Calm - N/A   Clear
9:58 PM 60.1 °F - 52.0 °F 75% 30.22 in 10.0 mi Calm Calm - N/A   Clear
10:58 PM 57.9 °F - 51.1 °F 78% 30.22 in 10.0 mi Calm Calm - N/A   Clear
11:58 PM 55.9 °F - 50.0 °F 80% 30.19 in 10.0 mi Calm Calm - N/A   Clear